Hovedside
METAR-TAF:

METAR-TAF

Lufthavner :

Pärnu, Estland

Pärnu lufthavn

breddegrad: 58-25-09N, lengdegrad: 024-28-22E, høyde over havet: 14 m

Gjeldene værobservasjon

Denne rapporten ble laget for 15 timer og 45 minutter siden, klokken 12:50 UTC
Vind 9 kt fra Vest-sørvest, skiftende mellom Sør-sørvest og Vest-nordvest
Temperatur 9°C
Luftfuktighet 49%
Trykk 1007 hPa
Sikt 10 km eller mer
ingen skyer under 1500 m og ingen bygeskyer

METAR: EEPU 241250Z 24009KT 200V290 CAVOK 09/M01 Q1007

Tid: 07:35 (04:35 UTC)


TAF: fraværende

Værobservasjoner og værvarsel for over 4000 flyplasser (METAR- og TAF-rapporter).

Tilgjengelige stasjoner er representert av de røde og gule prikkene på kartet.

Hold musepekeren over prikken for å se navnet på stasjonen.

Klikk så for å se værobservasjoner og -varsler.

For å forandre kartet kan du klikke på den grønne knappen med svart kryss for å zoome inn, på den grønne knappen med strek for å zoome ut, eller på de grønne pilene for å se tilstøtende kart.


METAR-TAF: